Погода в Осташкове

Погода в Осташкове : погода сейчас, прогноз погоды и архив. Всё, что Вы хотите узнать о погоде в Осташкове!

Поиск расширенной информации на нашем сайте:

Другие новости

Новости СМИ2

Главная страница сайта

Новости сайта

02.10.2013

Напоминаем, что на нашем новом сайте вы можете получить высокодетализированные прогнозы погоды по пунктам России, СНГ и мира (включающие важные для авиации метеовеличины, такие как направление и скорость ветра, видимость, явления погоды, количество и форма облачности, нижняя и верхняя граница облачности), а также ознакомиться с разнообразными материалами по авиационной метеорологии и подборкой полезных ссылок на эту тему.

Сайт Метеоцентр.Азия посвящён разработке технологий оптимизации авиаметеорологического обслуживания, включая проектирование и перспективное создание нескольких автоматизированных авиаметеорологических систем:
- система выпуска высокодетальных прогностических карт явлений погоды для нижнего воздушного пространства по России и ближнему зарубежью;
- система верификации прогнозов TAF (выпускаемых синоптиками официальных АМСГ РФ и ближнего зарубежья) и AUTOTAF (выпускаемых сайтом Метеоцентр.Азия) - выявление ошибок, онлайн-сопоставление с фактической погодой METAR, автоматическое внесение коррективов в прогнозы при резком отклонении фактической погоды от прогноза, подсчёт оправдываемости прогнозов по элементам и в целом;
- система обработки, анализа и отображения авиаметеорологической информации для применения провайдерами метеорологической информации.


Погода в Осташкове - сегодня

Время (UTC), дата Ветер
(°,м/с) 
Видим.   Явления Облачность Т
(°С)
Тd
(°С)
f(%) Тe
(°С)
Pmin
(гПа)
dP
(гПа)
Po
(мм)
O2
(г/м3)
Тmin Tmax R s Состояние
почвы
21 23.06.17 250 (З) 4000 м  дымка  3/0 средняя 
[Ac trans]
+8.5 +6.5 87 +9  1006.5  0.8  736  286           
00 24.06.17 300 (СЗ) 4000 м  дымка  4/0 средняя 
[Ac trans]
+8.2 +7.2 93 +9  1007.2  0.6  736  287           
03 24.06.17 240 (ЮЗ) 4000 м  дымка  3/0 средняя 
[Ac trans]
+7.4 +7.1 98 +7  1007.4  0.1  736  288  +7.3         
06 24.06.17 360 (С) 10 км    6/6 1000 м 
[Cu med, cong]
+13.5 +6.5 63 +15  1007.1  0.2  736  282  +7.3        влажная 
09 24.06.17 260 (З) 10 км    8/8 1000 м 
[Cu med, cong]
+15 +6.5 57 +16  1006.7  -0.3  736  280           
12 24.06.17 180 (Ю) 10 км    8/8 1000 м 
[Cu med, cong]
+16.9 +5.9 48 +18  1005.8  -0.7  736  278           
15 24.06.17 тихо ()   10 км    8/8 600 м 
[Sc]
+18.5 +5.1 41 +19  1004.7  -0.9  735  277           
18 24.06.17 тихо ()   10 км    8/8 600 м 
[Sc]
+15 +8.7 66 +15  1004.2  -0.7  734  279    +19.3       
21 24.06.17 170 (Ю) 10 км    8/8 600 м 
[Sc]
+13.1 +9.1 77 +14  1003.5  -0.8  734  280           
00 25.06.17 тихо ()   4000 м  дымка{ливн. осадки}  9/9 600 м 
[Sc]
+12.8 +12.1 96 +17  1002.7  -0.8  733  280           
03 25.06.17 190 (Ю) 4000 м  дымка{ливн. осадки}  10/10 300 м 
[St]
+13.3 +13 98 +21  1001.5  -1.1  732  279  +12.6       
06 25.06.17 220 (ЮЗ) 4000 м  дымка{ливн. осадки}  9/9 600 м 
[Sc]
+14.4 +12.6 89 +20  1002.1  0.6  733  278  +12.6      влажная 
09 25.06.17 190 (Ю) 4000 м  дымка{ливн. осадки}  8/8 600 м 
[Sc]
+16.8 +15.1 90 +27  1001.8  733  275           
12 25.06.17 240 (ЮЗ) 10 км  {ливн. осадки}  6/6 1000 м 
[Cu med, cong]
+20.9 +11.1 53 +24  1001.2  -0.3  733  272           
15 25.06.17 280 (З) 10 км    8/8 1000 м 
[Cu med, cong]
+20.6 +10.3 52 +23  1001.7  0.5  733  273         
18 25.06.17 240 (ЮЗ) 10 км    8/5 600 м средняя 
[Sc|Ac trans]
+18 +11.5 66 +23  1002.6  0.7  733  275    +22.4     
21 25.06.17 210 (ЮЗ) 10 км    6/4 600 м средняя 
[Sc|Ac trans]
+15.1 +10.9 76 +19  1003.2  0.3  734  278           
00 26.06.17 200 (Ю) 10 км    8/0 средняя 
[Ac trans]
+13.7 +10.4 80 +17  1003.5  0.3  734  280           
03 26.06.17 170 (Ю) 4000 м  дымка{ливн. осадки}  9/9 600 м 
[Sc]
+12.2 +10.8 91 +16  1002.9  -0.7  733  281  +12.2    0.3     
06 26.06.17 180 (Ю) 4000 м  дымка{ливн. осадки}  9/9 600 м 
[Sc]
+14.4 +12.8 90 +22  1001.3  -1.4  732  278  +12.1    0.8    влажная 
09 26.06.17 240 (ЮЗ) 10 км  {ливн. осадки}  8/8 600 м 
[Sc]
+17.1 +12.9 76 +23  1000.9  -0.1  732  275           
12 26.06.17 250 (З) 4{12}  10 км  {ливн. осадки}  8/6 600 м средняя 
[Sc|Ac trans]
+19.1 +7.3 46 +20  1000.7  -0.1  732  274           
15 26.06.17 220 (ЮЗ) 2{12}  10 км    9/9 600 м 
[Sc]
+16 +10.4 69 +19  1000.9  732  277         
18 26.06.17 230 (ЮЗ) 3{12}  10 км    4/4 600 м 
[Sc]
+15 +11 77 +18  1000.9  -0.1  732  277    +19.4     
21 26.06.17 210 (ЮЗ) 10 км    4/4 600 м 
[Sc]
+11.4 +8.8 84 +13  1002.2  0.9  733  282           
Время (UTC), дата Ветер
(°,м/с) 
Видим.   Явления Облачность Т
(°С)
Тd
(°С)
f(%) Тe
(°С)
Pmin
(гПа)
dP
(гПа)
Po
(мм)
O2
(г/м3)
Тmin Tmax R s Состояние
почвы

Для получения пояснительной информации подведите курсор к названию столбца.

ПОГОДА в Осташкове - архив

Всё, что Вы хотите узнать о погоде в Осташкове - удобно и подробно!

Выберите нужную дату (начиная с 1 января 2015* года) и нажмите кнопку "Найти".
Будут отображены архивные сводки погоды по пункту Осташков, начиная с указанной даты.


Отображать данные в формате CSV (для использования в таблицах Excel)


Внимание! Наш архив погоды предназначен исключительно для личного некоммерческого использования в познавательных целях. Если Вам необходимы официальные справки о состоянии погоды (для производственных, юридических, коммерческих и т.п. целей), обращайтесь в органы Росгидромета.

*Примечание: данная дата относится к архиву по метеостанциям СССР (Россия, СНГ, Балтия).
Архив по метеостанциям Зарубежной Европы и Азии (кроме Китая) хранится 10 дней, по другим регионам земного шара (Китай, Африка, Америка, Австралия, Океания) - 1 день.

Осташков - район местоположения метеостанции


Название, широта, долгота, высота метеостанции:
Осташков 57.1°ш. 33.1°д. 218 м над ур. моря [Российская Федерация]

Дополнительная информация

В oтличие oт бoльшинства пoгoдных сайтoв мы публикуем пoдрoбную метеoинфoрмацию в детальнoм прoфессиoнальнoм фoрмате.

Характеристики температуры и влажнoсти вoздуха измеряются на высoте 2 м в тени вдали oт зданий и деревьев.
Скoрoсть ветра измеряется на высoте 10 м (на урoвне рoста челoвека скoрoсть ветра ниже в 1.5-2 раза). Если метеoстанция нахoдится в гoрoде или в лесу, тo скoрoсть ветра занижена на 2-4 м/с пo сравнению с oткрытым местoм. Скoрoсть ветра над акватoриями крупных рек и oзёр, а также на вершинах хoлмoв на 2-5 м/с выше, чем в oбычных услoвиях.
Атмoсфернoе давление в разных тoчках местнoсти мoжет значительнo oтличаться oт давления на метеoстанции, в зависимoсти oт услoвий рельефа (при пoдъёме на 10 м давление пoнижается примернo на 1 мм рт.ст.).